owner,sensor,date,latitude,longitude,sea_surface_height_above_sea_level,qcFlag 
COMPS,ioos:station:USF.COMPS:ARP:1,2009-03-01T00:00:00Z,28.4330,-82.6670,-0.14,1111122 
COMPS,ioos:station:USF.COMPS:ARP:1,2009-03-01T00:06:00Z,28.4330,-82.6670,-0.161,1111122 
COMPS,ioos:station:USF.COMPS:ARP:1,2009-03-01T00:12:00Z,28.4330,-82.6670,-0.179,1111122 
COMPS,ioos:station:USF.COMPS:ARP:1,2009-03-01T00:18:00Z,28.4330,-82.6670,-0.199,1111122 
COMPS,ioos:station:USF.COMPS:ARP:1,2009-03-01T00:24:00Z,28.4330,-82.6670,-0.217,1111122 
COMPS,ioos:station:USF.COMPS:ARP:1,2009-03-01T00:30:00Z,28.4330,-82.6670,-0.236,1111122 
COMPS,ioos:station:USF.COMPS:ARP:1,2009-03-01T00:36:00Z,28.4330,-82.6670,-0.253,1111122 
COMPS,ioos:station:USF.COMPS:ARP:1,2009-03-01T00:42:00Z,28.4330,-82.6670,-0.27,1111122 
COMPS,ioos:station:USF.COMPS:ARP:1,2009-03-01T00:48:00Z,28.4330,-82.6670,-0.287,1111122 
COMPS,ioos:station:USF.COMPS:ARP:1,2009-03-01T00:54:00Z,28.4330,-82.6670,-0.302,1111122 
COMPS,ioos:station:USF.COMPS:ARP:1,2009-03-01T01:00:00Z,28.4330,-82.6670,-0.317,1111122 
COMPS,ioos:station:USF.COMPS:ARP:1,2009-03-01T01:06:00Z,28.4330,-82.6670,-0.332,1111122 
COMPS,ioos:station:USF.COMPS:ARP:1,2009-03-01T01:12:00Z,28.4330,-82.6670,-0.347,1111122 
COMPS,ioos:station:USF.COMPS:ARP:1,2009-03-01T01:18:00Z,28.4330,-82.6670,-0.361,1111122 
COMPS,ioos:station:USF.COMPS:ARP:1,2009-03-01T01:24:00Z,28.4330,-82.6670,-0.375,1111122 
COMPS,ioos:station:USF.COMPS:ARP:1,2009-03-01T01:30:00Z,28.4330,-82.6670,-0.388,1111122 
COMPS,ioos:station:USF.COMPS:ARP:1,2009-03-01T01:36:00Z,28.4330,-82.6670,-0.4,1111122 
COMPS,ioos:station:USF.COMPS:ARP:1,2009-03-01T01:42:00Z,28.4330,-82.6670,-0.413,1111122 
COMPS,ioos:station:USF.COMPS:ARP:1,2009-03-01T01:48:00Z,28.4330,-82.6670,-0.425,1111122 
COMPS,ioos:station:USF.COMPS:ARP:1,2009-03-01T01:54:00Z,28.4330,-82.6670,-0.437,1111122 
COMPS,ioos:station:USF.COMPS:ARP:1,2009-03-01T02:00:00Z,28.4330,-82.6670,-0.448,1111122 
COMPS,ioos:station:USF.COMPS:ARP:1,2009-03-01T02:06:00Z,28.4330,-82.6670,-0.459,1111122 
COMPS,ioos:station:USF.COMPS:ARP:1,2009-03-01T02:12:00Z,28.4330,-82.6670,-0.469,1111122 
COMPS,ioos:station:USF.COMPS:ARP:1,2009-03-01T02:18:00Z,28.4330,-82.6670,-0.479,1111122 
COMPS,ioos:station:USF.COMPS:ARP:1,2009-03-01T02:24:00Z,28.4330,-82.6670,-0.489,1111122 
COMPS,ioos:station:USF.COMPS:ARP:1,2009-03-01T02:30:00Z,28.4330,-82.6670,-0.498,1111122 
COMPS,ioos:station:USF.COMPS:ARP:1,2009-03-01T02:36:00Z,28.4330,-82.6670,-0.507,1111122 
COMPS,ioos:station:USF.COMPS:ARP:1,2009-03-01T02:42:00Z,28.4330,-82.6670,-0.516,1111122 
COMPS,ioos:station:USF.COMPS:ARP:1,2009-03-01T02:48:00Z,28.4330,-82.6670,-0.524,1111122 
COMPS,ioos:station:USF.COMPS:ARP:1,2009-03-01T02:54:00Z,28.4330,-82.6670,-0.533,1111122 
COMPS,ioos:station:USF.COMPS:ARP:1,2009-03-01T03:00:00Z,28.4330,-82.6670,-0.54,1111122 
COMPS,ioos:station:USF.COMPS:ARP:1,2009-03-01T03:06:00Z,28.4330,-82.6670,-0.547,1111122 
COMPS,ioos:station:USF.COMPS:ARP:1,2009-03-01T03:12:00Z,28.4330,-82.6670,-0.554,1111122 
COMPS,ioos:station:USF.COMPS:ARP:1,2009-03-01T03:18:00Z,28.4330,-82.6670,-0.56,1111122 
COMPS,ioos:station:USF.COMPS:ARP:1,2009-03-01T03:24:00Z,28.4330,-82.6670,-0.566,1111122 
COMPS,ioos:station:USF.COMPS:ARP:1,2009-03-01T03:30:00Z,28.4330,-82.6670,-0.57,1111122 
COMPS,ioos:station:USF.COMPS:ARP:1,2009-03-01T03:36:00Z,28.4330,-82.6670,-0.574,1111122 
COMPS,ioos:station:USF.COMPS:ARP:1,2009-03-01T03:42:00Z,28.4330,-82.6670,-0.577,1111122 
COMPS,ioos:station:USF.COMPS:ARP:1,2009-03-01T03:48:00Z,28.4330,-82.6670,-0.579,1111122 
COMPS,ioos:station:USF.COMPS:ARP:1,2009-03-01T03:54:00Z,28.4330,-82.6670,-0.58,1111122 
COMPS,ioos:station:USF.COMPS:ARP:1,2009-03-01T04:00:00Z,28.4330,-82.6670,-0.571,1111122 
COMPS,ioos:station:USF.COMPS:ARP:1,2009-03-01T04:06:00Z,28.4330,-82.6670,-0.572,1111122 
COMPS,ioos:station:USF.COMPS:ARP:1,2009-03-01T04:12:00Z,28.4330,-82.6670,-0.577,1111122 
COMPS,ioos:station:USF.COMPS:ARP:1,2009-03-01T04:18:00Z,28.4330,-82.6670,-0.573,1111122 
COMPS,ioos:station:USF.COMPS:ARP:1,2009-03-01T04:24:00Z,28.4330,-82.6670,-0.57,1111122 
COMPS,ioos:station:USF.COMPS:ARP:1,2009-03-01T04:30:00Z,28.4330,-82.6670,-0.564,1111122 
COMPS,ioos:station:USF.COMPS:ARP:1,2009-03-01T04:36:00Z,28.4330,-82.6670,-0.557,1111122 
COMPS,ioos:station:USF.COMPS:ARP:1,2009-03-01T04:42:00Z,28.4330,-82.6670,-0.548,1111122 
COMPS,ioos:station:USF.COMPS:ARP:1,2009-03-01T04:48:00Z,28.4330,-82.6670,-0.538,1111122 
COMPS,ioos:station:USF.COMPS:ARP:1,2009-03-01T04:54:00Z,28.4330,-82.6670,-0.527,1111122 
COMPS,ioos:station:USF.COMPS:ARP:1,2009-03-01T05:00:00Z,28.4330,-82.6670,-0.516,1111122 
COMPS,ioos:station:USF.COMPS:ARP:1,2009-03-01T05:06:00Z,28.4330,-82.6670,-0.502,1111122 
COMPS,ioos:station:USF.COMPS:ARP:1,2009-03-01T05:12:00Z,28.4330,-82.6670,-0.488,1111122 
COMPS,ioos:station:USF.COMPS:ARP:1,2009-03-01T05:18:00Z,28.4330,-82.6670,-0.472,1111122 
COMPS,ioos:station:USF.COMPS:ARP:1,2009-03-01T05:24:00Z,28.4330,-82.6670,-0.455,1111122 
COMPS,ioos:station:USF.COMPS:ARP:1,2009-03-01T05:30:00Z,28.4330,-82.6670,-0.435,1111122 
COMPS,ioos:station:USF.COMPS:ARP:1,2009-03-01T05:36:00Z,28.4330,-82.6670,-0.415,1111122 
COMPS,ioos:station:USF.COMPS:ARP:1,2009-03-01T05:42:00Z,28.4330,-82.6670,-0.392,1111122 
COMPS,ioos:station:USF.COMPS:ARP:1,2009-03-01T05:48:00Z,28.4330,-82.6670,-0.367,1111122 
COMPS,ioos:station:USF.COMPS:ARP:1,2009-03-01T05:54:00Z,28.4330,-82.6670,-0.341,1111122 
COMPS,ioos:station:USF.COMPS:ARP:1,2009-03-01T06:00:00Z,28.4330,-82.6670,-0.314,1111122 
COMPS,ioos:station:USF.COMPS:ARP:1,2009-03-01T06:06:00Z,28.4330,-82.6670,-0.284,1111122 
COMPS,ioos:station:USF.COMPS:ARP:1,2009-03-01T06:12:00Z,28.4330,-82.6670,-0.252,1111122 
COMPS,ioos:station:USF.COMPS:ARP:1,2009-03-01T06:18:00Z,28.4330,-82.6670,-0.221,1111122 
COMPS,ioos:station:USF.COMPS:ARP:1,2009-03-01T06:24:00Z,28.4330,-82.6670,-0.187,1111122 
COMPS,ioos:station:USF.COMPS:ARP:1,2009-03-01T06:30:00Z,28.4330,-82.6670,-0.152,1111122 
COMPS,ioos:station:USF.COMPS:ARP:1,2009-03-01T06:36:00Z,28.4330,-82.6670,-0.119,1111122 
COMPS,ioos:station:USF.COMPS:ARP:1,2009-03-01T06:42:00Z,28.4330,-82.6670,-0.085,1111122 
COMPS,ioos:station:USF.COMPS:ARP:1,2009-03-01T06:48:00Z,28.4330,-82.6670,-0.053,1111122 
COMPS,ioos:station:USF.COMPS:ARP:1,2009-03-01T06:54:00Z,28.4330,-82.6670,-0.023,1111122 
COMPS,ioos:station:USF.COMPS:ARP:1,2009-03-01T07:00:00Z,28.4330,-82.6670,0.007,1111122 
COMPS,ioos:station:USF.COMPS:ARP:1,2009-03-01T07:06:00Z,28.4330,-82.6670,0.035,1111122 
COMPS,ioos:station:USF.COMPS:ARP:1,2009-03-01T07:12:00Z,28.4330,-82.6670,0.064,1111122 
COMPS,ioos:station:USF.COMPS:ARP:1,2009-03-01T07:18:00Z,28.4330,-82.6670,0.09,1111122 
COMPS,ioos:station:USF.COMPS:ARP:1,2009-03-01T07:24:00Z,28.4330,-82.6670,0.118,1111122 
COMPS,ioos:station:USF.COMPS:ARP:1,2009-03-01T07:30:00Z,28.4330,-82.6670,0.146,1111122 
COMPS,ioos:station:USF.COMPS:ARP:1,2009-03-01T07:36:00Z,28.4330,-82.6670,0.169,1111122 
COMPS,ioos:station:USF.COMPS:ARP:1,2009-03-01T07:42:00Z,28.4330,-82.6670,0.194,1111122 
COMPS,ioos:station:USF.COMPS:ARP:1,2009-03-01T07:48:00Z,28.4330,-82.6670,0.216,1111122 
COMPS,ioos:station:USF.COMPS:ARP:1,2009-03-01T07:54:00Z,28.4330,-82.6670,0.238,1111122 
COMPS,ioos:station:USF.COMPS:ARP:1,2009-03-01T08:00:00Z,28.4330,-82.6670,0.257,1111122 
COMPS,ioos:station:USF.COMPS:ARP:1,2009-03-01T08:06:00Z,28.4330,-82.6670,0.274,1111122 
COMPS,ioos:station:USF.COMPS:ARP:1,2009-03-01T08:12:00Z,28.4330,-82.6670,0.292,1111122 
COMPS,ioos:station:USF.COMPS:ARP:1,2009-03-01T08:18:00Z,28.4330,-82.6670,0.303,1111122 
COMPS,ioos:station:USF.COMPS:ARP:1,2009-03-01T08:24:00Z,28.4330,-82.6670,0.314,1111122 
COMPS,ioos:station:USF.COMPS:ARP:1,2009-03-01T08:30:00Z,28.4330,-82.6670,0.324,1111122 
COMPS,ioos:station:USF.COMPS:ARP:1,2009-03-01T08:36:00Z,28.4330,-82.6670,0.333,1111122 
COMPS,ioos:station:USF.COMPS:ARP:1,2009-03-01T08:42:00Z,28.4330,-82.6670,0.337,1111122 
COMPS,ioos:station:USF.COMPS:ARP:1,2009-03-01T08:48:00Z,28.4330,-82.6670,0.336,1111122 
COMPS,ioos:station:USF.COMPS:ARP:1,2009-03-01T08:54:00Z,28.4330,-82.6670,0.338,1111122 
COMPS,ioos:station:USF.COMPS:ARP:1,2009-03-01T09:00:00Z,28.4330,-82.6670,0.325,1111122 
COMPS,ioos:station:USF.COMPS:ARP:1,2009-03-01T09:06:00Z,28.4330,-82.6670,0.326,1111122 
COMPS,ioos:station:USF.COMPS:ARP:1,2009-03-01T09:12:00Z,28.4330,-82.6670,0.328,1111122 
COMPS,ioos:station:USF.COMPS:ARP:1,2009-03-01T09:18:00Z,28.4330,-82.6670,0.318,1111122 
COMPS,ioos:station:USF.COMPS:ARP:1,2009-03-01T09:24:00Z,28.4330,-82.6670,0.313,1111122 
COMPS,ioos:station:USF.COMPS:ARP:1,2009-03-01T09:30:00Z,28.4330,-82.6670,0.315,1111122 
COMPS,ioos:station:USF.COMPS:ARP:1,2009-03-01T09:36:00Z,28.4330,-82.6670,0.302,1111122 
COMPS,ioos:station:USF.COMPS:ARP:1,2009-03-01T09:42:00Z,28.4330,-82.6670,0.3,1111122 
COMPS,ioos:station:USF.COMPS:ARP:1,2009-03-01T09:48:00Z,28.4330,-82.6670,0.283,1111122 
COMPS,ioos:station:USF.COMPS:ARP:1,2009-03-01T09:54:00Z,28.4330,-82.6670,0.269,1111122 
COMPS,ioos:station:USF.COMPS:ARP:1,2009-03-01T10:00:00Z,28.4330,-82.6670,0.258,1111122 
COMPS,ioos:station:USF.COMPS:ARP:1,2009-03-01T10:06:00Z,28.4330,-82.6670,0.245,1111122 
COMPS,ioos:station:USF.COMPS:ARP:1,2009-03-01T10:12:00Z,28.4330,-82.6670,0.235,1111122 
COMPS,ioos:station:USF.COMPS:ARP:1,2009-03-01T10:18:00Z,28.4330,-82.6670,0.225,1111122 
COMPS,ioos:station:USF.COMPS:ARP:1,2009-03-01T10:24:00Z,28.4330,-82.6670,0.214,1111122 
COMPS,ioos:station:USF.COMPS:ARP:1,2009-03-01T10:30:00Z,28.4330,-82.6670,0.201,1111122 
COMPS,ioos:station:USF.COMPS:ARP:1,2009-03-01T10:36:00Z,28.4330,-82.6670,0.181,1111122 
COMPS,ioos:station:USF.COMPS:ARP:1,2009-03-01T10:42:00Z,28.4330,-82.6670,0.166,1111122 
COMPS,ioos:station:USF.COMPS:ARP:1,2009-03-01T10:48:00Z,28.4330,-82.6670,0.152,1111122 
COMPS,ioos:station:USF.COMPS:ARP:1,2009-03-01T10:54:00Z,28.4330,-82.6670,0.138,1111122 
COMPS,ioos:station:USF.COMPS:ARP:1,2009-03-01T11:00:00Z,28.4330,-82.6670,0.12,1111122 
COMPS,ioos:station:USF.COMPS:ARP:1,2009-03-01T11:06:00Z,28.4330,-82.6670,0.111,1111122 
COMPS,ioos:station:USF.COMPS:ARP:1,2009-03-01T11:12:00Z,28.4330,-82.6670,0.096,1111122 
COMPS,ioos:station:USF.COMPS:ARP:1,2009-03-01T11:18:00Z,28.4330,-82.6670,0.079,1111122 
COMPS,ioos:station:USF.COMPS:ARP:1,2009-03-01T11:24:00Z,28.4330,-82.6670,0.065,1111122 
COMPS,ioos:station:USF.COMPS:ARP:1,2009-03-01T11:30:00Z,28.4330,-82.6670,0.05,1111122 
COMPS,ioos:station:USF.COMPS:ARP:1,2009-03-01T11:36:00Z,28.4330,-82.6670,0.035,1111122 
COMPS,ioos:station:USF.COMPS:ARP:1,2009-03-01T11:42:00Z,28.4330,-82.6670,0.026,1111122 
COMPS,ioos:station:USF.COMPS:ARP:1,2009-03-01T11:48:00Z,28.4330,-82.6670,0.014,1111122 
COMPS,ioos:station:USF.COMPS:ARP:1,2009-03-01T11:54:00Z,28.4330,-82.6670,0.035,1111122 
COMPS,ioos:station:USF.COMPS:ARP:1,2009-03-01T12:00:00Z,28.4330,-82.6670,0.064,1111122 
COMPS,ioos:station:USF.COMPS:ARP:1,2009-03-01T12:06:00Z,28.4330,-82.6670,0.077,1111122 
COMPS,ioos:station:USF.COMPS:ARP:1,2009-03-01T12:12:00Z,28.4330,-82.6670,0.109,1111122 
COMPS,ioos:station:USF.COMPS:ARP:1,2009-03-01T12:18:00Z,28.4330,-82.6670,0.141,1111122 
COMPS,ioos:station:USF.COMPS:ARP:1,2009-03-01T12:24:00Z,28.4330,-82.6670,0.166,1111122 
COMPS,ioos:station:USF.COMPS:ARP:1,2009-03-01T12:30:00Z,28.4330,-82.6670,0.188,1111122 
COMPS,ioos:station:USF.COMPS:ARP:1,2009-03-01T12:36:00Z,28.4330,-82.6670,0.221,1111122 
COMPS,ioos:station:USF.COMPS:ARP:1,2009-03-01T12:42:00Z,28.4330,-82.6670,0.247,1111122 
COMPS,ioos:station:USF.COMPS:ARP:1,2009-03-01T12:48:00Z,28.4330,-82.6670,0.28,1111122 
COMPS,ioos:station:USF.COMPS:ARP:1,2009-03-01T12:54:00Z,28.4330,-82.6670,0.301,1111122 
COMPS,ioos:station:USF.COMPS:ARP:1,2009-03-01T13:00:00Z,28.4330,-82.6670,0.335,1111122 
COMPS,ioos:station:USF.COMPS:ARP:1,2009-03-01T13:06:00Z,28.4330,-82.6670,0.363,1111122 
COMPS,ioos:station:USF.COMPS:ARP:1,2009-03-01T13:12:00Z,28.4330,-82.6670,0.389,1111122 
COMPS,ioos:station:USF.COMPS:ARP:1,2009-03-01T13:18:00Z,28.4330,-82.6670,0.409,1111122 
COMPS,ioos:station:USF.COMPS:ARP:1,2009-03-01T13:24:00Z,28.4330,-82.6670,0.425,1111122 
COMPS,ioos:station:USF.COMPS:ARP:1,2009-03-01T13:30:00Z,28.4330,-82.6670,0.441,1111122 
COMPS,ioos:station:USF.COMPS:ARP:1,2009-03-01T13:36:00Z,28.4330,-82.6670,0.46,1111122 
COMPS,ioos:station:USF.COMPS:ARP:1,2009-03-01T13:42:00Z,28.4330,-82.6670,0.474,1111122 
COMPS,ioos:station:USF.COMPS:ARP:1,2009-03-01T13:48:00Z,28.4330,-82.6670,0.492,1111122 
COMPS,ioos:station:USF.COMPS:ARP:1,2009-03-01T13:54:00Z,28.4330,-82.6670,0.507,1111122 
COMPS,ioos:station:USF.COMPS:ARP:1,2009-03-01T14:00:00Z,28.4330,-82.6670,0.517,1111122 
COMPS,ioos:station:USF.COMPS:ARP:1,2009-03-01T14:06:00Z,28.4330,-82.6670,0.531,1111122 
COMPS,ioos:station:USF.COMPS:ARP:1,2009-03-01T14:12:00Z,28.4330,-82.6670,0.535,1111122 
COMPS,ioos:station:USF.COMPS:ARP:1,2009-03-01T14:18:00Z,28.4330,-82.6670,0.539,1111122 
COMPS,ioos:station:USF.COMPS:ARP:1,2009-03-01T14:24:00Z,28.4330,-82.6670,0.54,1111122 
COMPS,ioos:station:USF.COMPS:ARP:1,2009-03-01T14:30:00Z,28.4330,-82.6670,0.527,1111122 
COMPS,ioos:station:USF.COMPS:ARP:1,2009-03-01T14:36:00Z,28.4330,-82.6670,0.508,1111122 
COMPS,ioos:station:USF.COMPS:ARP:1,2009-03-01T14:42:00Z,28.4330,-82.6670,0.509,1111122 
COMPS,ioos:station:USF.COMPS:ARP:1,2009-03-01T14:48:00Z,28.4330,-82.6670,0.508,1111122 
COMPS,ioos:station:USF.COMPS:ARP:1,2009-03-01T14:54:00Z,28.4330,-82.6670,0.486,1111122 
COMPS,ioos:station:USF.COMPS:ARP:1,2009-03-01T15:00:00Z,28.4330,-82.6670,0.482,1111122 
COMPS,ioos:station:USF.COMPS:ARP:1,2009-03-01T15:06:00Z,28.4330,-82.6670,0.465,1111122 
COMPS,ioos:station:USF.COMPS:ARP:1,2009-03-01T15:12:00Z,28.4330,-82.6670,0.462,1111122 
COMPS,ioos:station:USF.COMPS:ARP:1,2009-03-01T15:18:00Z,28.4330,-82.6670,0.46,1111122 
COMPS,ioos:station:USF.COMPS:ARP:1,2009-03-01T15:24:00Z,28.4330,-82.6670,0.446,1111122 
COMPS,ioos:station:USF.COMPS:ARP:1,2009-03-01T15:30:00Z,28.4330,-82.6670,0.441,1111122 
COMPS,ioos:station:USF.COMPS:ARP:1,2009-03-01T15:36:00Z,28.4330,-82.6670,0.426,1111122 
COMPS,ioos:station:USF.COMPS:ARP:1,2009-03-01T15:42:00Z,28.4330,-82.6670,0.401,1111122 
COMPS,ioos:station:USF.COMPS:ARP:1,2009-03-01T15:48:00Z,28.4330,-82.6670,0.386,1111122 
COMPS,ioos:station:USF.COMPS:ARP:1,2009-03-01T15:54:00Z,28.4330,-82.6670,0.368,1111122 
COMPS,ioos:station:USF.COMPS:ARP:1,2009-03-01T16:00:00Z,28.4330,-82.6670,0.358,1111122 
COMPS,ioos:station:USF.COMPS:ARP:1,2009-03-01T16:06:00Z,28.4330,-82.6670,0.338,1111122 
COMPS,ioos:station:USF.COMPS:ARP:1,2009-03-01T16:12:00Z,28.4330,-82.6670,0.33,1111122 
COMPS,ioos:station:USF.COMPS:ARP:1,2009-03-01T16:18:00Z,28.4330,-82.6670,0.313,1111122 
COMPS,ioos:station:USF.COMPS:ARP:1,2009-03-01T16:24:00Z,28.4330,-82.6670,0.303,1111122 
COMPS,ioos:station:USF.COMPS:ARP:1,2009-03-01T16:30:00Z,28.4330,-82.6670,0.289,1111122 
COMPS,ioos:station:USF.COMPS:ARP:1,2009-03-01T16:36:00Z,28.4330,-82.6670,0.278,1111122 
COMPS,ioos:station:USF.COMPS:ARP:1,2009-03-01T16:42:00Z,28.4330,-82.6670,0.271,1111122 
COMPS,ioos:station:USF.COMPS:ARP:1,2009-03-01T16:48:00Z,28.4330,-82.6670,0.258,1111122 
COMPS,ioos:station:USF.COMPS:ARP:1,2009-03-01T16:54:00Z,28.4330,-82.6670,0.244,1111122 
COMPS,ioos:station:USF.COMPS:ARP:1,2009-03-01T17:00:00Z,28.4330,-82.6670,0.23,1111122 
COMPS,ioos:station:USF.COMPS:ARP:1,2009-03-01T17:06:00Z,28.4330,-82.6670,0.226,1111122 
COMPS,ioos:station:USF.COMPS:ARP:1,2009-03-01T17:12:00Z,28.4330,-82.6670,0.214,1111122 
COMPS,ioos:station:USF.COMPS:ARP:1,2009-03-01T17:18:00Z,28.4330,-82.6670,0.206,1111122 
COMPS,ioos:station:USF.COMPS:ARP:1,2009-03-01T17:24:00Z,28.4330,-82.6670,0.208,1111122 
COMPS,ioos:station:USF.COMPS:ARP:1,2009-03-01T17:30:00Z,28.4330,-82.6670,0.212,1111122 
COMPS,ioos:station:USF.COMPS:ARP:1,2009-03-01T17:36:00Z,28.4330,-82.6670,0.216,1111122 
COMPS,ioos:station:USF.COMPS:ARP:1,2009-03-01T17:42:00Z,28.4330,-82.6670,0.219,1111122 
COMPS,ioos:station:USF.COMPS:ARP:1,2009-03-01T17:48:00Z,28.4330,-82.6670,0.229,1111122 
COMPS,ioos:station:USF.COMPS:ARP:1,2009-03-01T17:54:00Z,28.4330,-82.6670,0.239,1111122 
COMPS,ioos:station:USF.COMPS:ARP:1,2009-03-01T18:00:00Z,28.4330,-82.6670,0.245,1111122 
COMPS,ioos:station:USF.COMPS:ARP:1,2009-03-01T18:06:00Z,28.4330,-82.6670,0.252,1111122 
COMPS,ioos:station:USF.COMPS:ARP:1,2009-03-01T18:12:00Z,28.4330,-82.6670,0.266,1111122 
COMPS,ioos:station:USF.COMPS:ARP:1,2009-03-01T18:18:00Z,28.4330,-82.6670,0.279,1111122 
COMPS,ioos:station:USF.COMPS:ARP:1,2009-03-01T18:24:00Z,28.4330,-82.6670,0.291,1111122 
COMPS,ioos:station:USF.COMPS:ARP:1,2009-03-01T18:30:00Z,28.4330,-82.6670,0.315,1111122 
COMPS,ioos:station:USF.COMPS:ARP:1,2009-03-01T18:36:00Z,28.4330,-82.6670,0.321,1111122 
COMPS,ioos:station:USF.COMPS:ARP:1,2009-03-01T18:42:00Z,28.4330,-82.6670,0.342,1111122 
COMPS,ioos:station:USF.COMPS:ARP:1,2009-03-01T18:48:00Z,28.4330,-82.6670,0.363,1111122 
COMPS,ioos:station:USF.COMPS:ARP:1,2009-03-01T18:54:00Z,28.4330,-82.6670,0.384,1111122 
COMPS,ioos:station:USF.COMPS:ARP:1,2009-03-01T19:00:00Z,28.4330,-82.6670,0.399,1111122 
COMPS,ioos:station:USF.COMPS:ARP:1,2009-03-01T19:06:00Z,28.4330,-82.6670,0.414,1111122 
COMPS,ioos:station:USF.COMPS:ARP:1,2009-03-01T19:12:00Z,28.4330,-82.6670,0.431,1111122 
COMPS,ioos:station:USF.COMPS:ARP:1,2009-03-01T19:18:00Z,28.4330,-82.6670,0.433,1111122 
COMPS,ioos:station:USF.COMPS:ARP:1,2009-03-01T19:24:00Z,28.4330,-82.6670,0.435,1111122 
COMPS,ioos:station:USF.COMPS:ARP:1,2009-03-01T19:30:00Z,28.4330,-82.6670,0.439,1111122 
COMPS,ioos:station:USF.COMPS:ARP:1,2009-03-01T19:36:00Z,28.4330,-82.6670,0.429,1111122 
COMPS,ioos:station:USF.COMPS:ARP:1,2009-03-01T19:42:00Z,28.4330,-82.6670,0.434,1111122 
COMPS,ioos:station:USF.COMPS:ARP:1,2009-03-01T19:48:00Z,28.4330,-82.6670,0.425,1111122 
COMPS,ioos:station:USF.COMPS:ARP:1,2009-03-01T19:54:00Z,28.4330,-82.6670,0.429,1111122 
COMPS,ioos:station:USF.COMPS:ARP:1,2009-03-01T20:00:00Z,28.4330,-82.6670,0.428,1111122 
COMPS,ioos:station:USF.COMPS:ARP:1,2009-03-01T20:06:00Z,28.4330,-82.6670,0.416,1111122 
COMPS,ioos:station:USF.COMPS:ARP:1,2009-03-01T20:12:00Z,28.4330,-82.6670,0.406,1111122 
COMPS,ioos:station:USF.COMPS:ARP:1,2009-03-01T20:18:00Z,28.4330,-82.6670,0.402,1111122 
COMPS,ioos:station:USF.COMPS:ARP:1,2009-03-01T20:24:00Z,28.4330,-82.6670,0.409,1111122 
COMPS,ioos:station:USF.COMPS:ARP:1,2009-03-01T20:30:00Z,28.4330,-82.6670,0.4,1111122 
COMPS,ioos:station:USF.COMPS:ARP:1,2009-03-01T20:36:00Z,28.4330,-82.6670,0.418,1111122 
COMPS,ioos:station:USF.COMPS:ARP:1,2009-03-01T20:42:00Z,28.4330,-82.6670,0.426,1111122 
COMPS,ioos:station:USF.COMPS:ARP:1,2009-03-01T20:48:00Z,28.4330,-82.6670,0.438,1111122 
COMPS,ioos:station:USF.COMPS:ARP:1,2009-03-01T20:54:00Z,28.4330,-82.6670,0.453,1111122 
COMPS,ioos:station:USF.COMPS:ARP:1,2009-03-01T21:00:00Z,28.4330,-82.6670,0.45,1111122 
COMPS,ioos:station:USF.COMPS:ARP:1,2009-03-01T21:06:00Z,28.4330,-82.6670,0.453,1111122 
COMPS,ioos:station:USF.COMPS:ARP:1,2009-03-01T21:12:00Z,28.4330,-82.6670,0.445,1111122 
COMPS,ioos:station:USF.COMPS:ARP:1,2009-03-01T21:18:00Z,28.4330,-82.6670,0.44,1111122 
COMPS,ioos:station:USF.COMPS:ARP:1,2009-03-01T21:24:00Z,28.4330,-82.6670,0.432,1111122 
COMPS,ioos:station:USF.COMPS:ARP:1,2009-03-01T21:30:00Z,28.4330,-82.6670,0.434,1111122 
COMPS,ioos:station:USF.COMPS:ARP:1,2009-03-01T21:36:00Z,28.4330,-82.6670,0.425,1111122 
COMPS,ioos:station:USF.COMPS:ARP:1,2009-03-01T21:42:00Z,28.4330,-82.6670,0.427,1111122 
COMPS,ioos:station:USF.COMPS:ARP:1,2009-03-01T21:48:00Z,28.4330,-82.6670,0.425,1111122 
COMPS,ioos:station:USF.COMPS:ARP:1,2009-03-01T21:54:00Z,28.4330,-82.6670,0.418,1111122 
COMPS,ioos:station:USF.COMPS:ARP:1,2009-03-01T22:00:00Z,28.4330,-82.6670,0.416,1111122 
COMPS,ioos:station:USF.COMPS:ARP:1,2009-03-01T22:06:00Z,28.4330,-82.6670,0.408,1111122 
COMPS,ioos:station:USF.COMPS:ARP:1,2009-03-01T22:12:00Z,28.4330,-82.6670,0.401,1111122 
COMPS,ioos:station:USF.COMPS:ARP:1,2009-03-01T22:18:00Z,28.4330,-82.6670,0.385,1111122 
COMPS,ioos:station:USF.COMPS:ARP:1,2009-03-01T22:24:00Z,28.4330,-82.6670,0.38,1111122 
COMPS,ioos:station:USF.COMPS:ARP:1,2009-03-01T22:30:00Z,28.4330,-82.6670,0.367,1111122 
COMPS,ioos:station:USF.COMPS:ARP:1,2009-03-01T22:36:00Z,28.4330,-82.6670,0.363,1111122 
COMPS,ioos:station:USF.COMPS:ARP:1,2009-03-01T22:42:00Z,28.4330,-82.6670,0.359,1111122 
COMPS,ioos:station:USF.COMPS:ARP:1,2009-03-01T22:48:00Z,28.4330,-82.6670,0.344,1111122 
COMPS,ioos:station:USF.COMPS:ARP:1,2009-03-01T22:54:00Z,28.4330,-82.6670,0.336,1111122 
COMPS,ioos:station:USF.COMPS:ARP:1,2009-03-01T23:00:00Z,28.4330,-82.6670,0.322,1111122 
COMPS,ioos:station:USF.COMPS:ARP:1,2009-03-01T23:06:00Z,28.4330,-82.6670,0.308,1111122 
COMPS,ioos:station:USF.COMPS:ARP:1,2009-03-01T23:12:00Z,28.4330,-82.6670,0.296,1111122 
COMPS,ioos:station:USF.COMPS:ARP:1,2009-03-01T23:18:00Z,28.4330,-82.6670,0.288,1111122 
COMPS,ioos:station:USF.COMPS:ARP:1,2009-03-01T23:24:00Z,28.4330,-82.6670,0.275,1111122 
COMPS,ioos:station:USF.COMPS:ARP:1,2009-03-01T23:30:00Z,28.4330,-82.6670,0.264,1111122 
COMPS,ioos:station:USF.COMPS:ARP:1,2009-03-01T23:36:00Z,28.4330,-82.6670,0.251,1111122 
COMPS,ioos:station:USF.COMPS:ARP:1,2009-03-01T23:42:00Z,28.4330,-82.6670,0.242,1111122 
COMPS,ioos:station:USF.COMPS:ARP:1,2009-03-01T23:48:00Z,28.4330,-82.6670,0.227,1111122 
COMPS,ioos:station:USF.COMPS:ARP:1,2009-03-01T23:54:00Z,28.4330,-82.6670,0.209,1111122 
COMPS,ioos:station:USF.COMPS:ARP:1,2009-03-02T00:00:00Z,28.4330,-82.6670,0.19,1111122 
COMPS,ioos:station:USF.COMPS:ARP:1,2009-03-02T00:06:00Z,28.4330,-82.6670,0.181,1111122 
COMPS,ioos:station:USF.COMPS:ARP:1,2009-03-02T00:12:00Z,28.4330,-82.6670,0.177,1111122 
COMPS,ioos:station:USF.COMPS:ARP:1,2009-03-02T00:18:00Z,28.4330,-82.6670,0.173,1111122 
COMPS,ioos:station:USF.COMPS:ARP:1,2009-03-02T00:24:00Z,28.4330,-82.6670,0.172,1111122 
COMPS,ioos:station:USF.COMPS:ARP:1,2009-03-02T00:30:00Z,28.4330,-82.6670,0.165,1111122 
COMPS,ioos:station:USF.COMPS:ARP:1,2009-03-02T00:36:00Z,28.4330,-82.6670,0.16,1111122 
COMPS,ioos:station:USF.COMPS:ARP:1,2009-03-02T00:42:00Z,28.4330,-82.6670,0.16,1111122 
COMPS,ioos:station:USF.COMPS:ARP:1,2009-03-02T00:48:00Z,28.4330,-82.6670,0.149,1111122 
COMPS,ioos:station:USF.COMPS:ARP:1,2009-03-02T00:54:00Z,28.4330,-82.6670,0.133,1111122 
COMPS,ioos:station:USF.COMPS:ARP:1,2009-03-02T01:00:00Z,28.4330,-82.6670,0.121,1111122 
COMPS,ioos:station:USF.COMPS:ARP:1,2009-03-02T01:06:00Z,28.4330,-82.6670,0.1,1111122 
COMPS,ioos:station:USF.COMPS:ARP:1,2009-03-02T01:12:00Z,28.4330,-82.6670,0.08,1111122 
COMPS,ioos:station:USF.COMPS:ARP:1,2009-03-02T01:18:00Z,28.4330,-82.6670,0.067,1111122 
COMPS,ioos:station:USF.COMPS:ARP:1,2009-03-02T01:24:00Z,28.4330,-82.6670,0.049,1111122 
COMPS,ioos:station:USF.COMPS:ARP:1,2009-03-02T01:30:00Z,28.4330,-82.6670,0.027,1111122 
COMPS,ioos:station:USF.COMPS:ARP:1,2009-03-02T01:36:00Z,28.4330,-82.6670,0.018,1111122 
COMPS,ioos:station:USF.COMPS:ARP:1,2009-03-02T01:42:00Z,28.4330,-82.6670,0.004,1111122 
COMPS,ioos:station:USF.COMPS:ARP:1,2009-03-02T01:48:00Z,28.4330,-82.6670,-0.014,1111122 
COMPS,ioos:station:USF.COMPS:ARP:1,2009-03-02T01:54:00Z,28.4330,-82.6670,-0.023,1111122 
COMPS,ioos:station:USF.COMPS:ARP:1,2009-03-02T02:00:00Z,28.4330,-82.6670,-0.04,1111122 
COMPS,ioos:station:USF.COMPS:ARP:1,2009-03-02T02:06:00Z,28.4330,-82.6670,-0.051,1111122 
COMPS,ioos:station:USF.COMPS:ARP:1,2009-03-02T02:12:00Z,28.4330,-82.6670,-0.065,1111122 
COMPS,ioos:station:USF.COMPS:ARP:1,2009-03-02T02:18:00Z,28.4330,-82.6670,-0.087,1111122 
COMPS,ioos:station:USF.COMPS:ARP:1,2009-03-02T02:24:00Z,28.4330,-82.6670,-0.1,1111122 
COMPS,ioos:station:USF.COMPS:ARP:1,2009-03-02T02:30:00Z,28.4330,-82.6670,-0.109,1111122 
COMPS,ioos:station:USF.COMPS:ARP:1,2009-03-02T02:36:00Z,28.4330,-82.6670,-0.122,1111122 
COMPS,ioos:station:USF.COMPS:ARP:1,2009-03-02T02:42:00Z,28.4330,-82.6670,-0.139,1111122 
COMPS,ioos:station:USF.COMPS:ARP:1,2009-03-02T02:48:00Z,28.4330,-82.6670,-0.152,1111122 
COMPS,ioos:station:USF.COMPS:ARP:1,2009-03-02T02:54:00Z,28.4330,-82.6670,-0.163,1111122 
COMPS,ioos:station:USF.COMPS:ARP:1,2009-03-02T03:00:00Z,28.4330,-82.6670,-0.171,1111122 